Location: *
(40.7873°S, 98.7174°E)
Time: 12:26:44
(UTC+00:00)

Kosmos-1816 - Pass Details

Date: 22 June 2024
Orbit: 959 x 1007 km, 82.9° (Epoch: 23 July)

Event Time Altitude Azimuth Distance (km) Brightness Sun altitude
Rises 23:58:30 0° 31° (NNE) 3,706 10.0 -9.5°
Reaches altitude 10° 00:01:26 10° 43° (NE) 2,772 9.6 -9.0°
Maximum altitude 00:06:29 25° 96° (E) 1,906 8.4 -8.1°
Drops below altitude 10° 00:11:34 10° 148° (SSE) 2,813 8.5 -7.2°
Sets 00:14:34 0° 160° (SSE) 3,772 9.0 -6.7°
